Location: Groß Eilstorf
(52.8200°N, 9.4552°E)
Time: 21:14:53
(UTC+00:00)

USA 186 - Pass Details

Date: 15 May 2026
Orbit: 338 x 359 km, 97.0° (Epoch: 19 May)

Event Time Altitude Azimuth Distance (km) Brightness Sun altitude
Exits shadow 21:12:57 - 219° (SW) 1,765 4.7 -13.2°
Reaches altitude 10° 21:14:50 10° 247° (WSW) 1,285 4.3 -13.3°
Maximum altitude 21:15:54 12° 270° (W) 1,197 4.4 -13.4°
Drops below altitude 10° 21:16:59 10° 293° (WNW) 1,294 5.0 -13.5°
Sets 21:19:53 0° 328° (NNW) 2,142 7.4 -13.7°
